Lake Blackshear Weather Center

Moon Phase Calendar



Lake Blackshear Water Level
Online Cameras

 


      

Current Conditions in Cordele
4/23/2024 11:06:49 PM

54°F
Feels Like 53
Clear
Humidity
76%
Pressure
30.15"
Wind
0
Dew Point
47°F
UV Index
0/10 (Low)
Visibility
6 mi

Hourly Forecast

Date & Time Tue, Apr 23
11:00 PM
Wed, Apr 24
12:00 AM
Wed, Apr 24
1:00 AM
Wed, Apr 24
2:00 AM
Wed, Apr 24
3:00 AM
Wed, Apr 24
4:00 AM
Wed, Apr 24
5:00 AM
Wed, Apr 24
6:00 AM
Wed, Apr 24
7:00 AM
Wed, Apr 24
8:00 AM
Wed, Apr 24
9:00 AM
Wed, Apr 24
10:00 AM
Wed, Apr 24
11:00 AM
Wed, Apr 24
12:00 PM
Wed, Apr 24
1:00 PM
Wed, Apr 24
2:00 PM
Wed, Apr 24
3:00 PM
Wed, Apr 24
4:00 PM
Wed, Apr 24
5:00 PM
Wed, Apr 24
6:00 PM
Wed, Apr 24
7:00 PM
Wed, Apr 24
8:00 PM
Wed, Apr 24
9:00 PM
Wed, Apr 24
10:00 PM
Wed, Apr 24
11:00 PM
Thu, Apr 25
12:00 AM
Thu, Apr 25
1:00 AM
Thu, Apr 25
2:00 AM
Thu, Apr 25
3:00 AM
Thu, Apr 25
4:00 AM
Thu, Apr 25
5:00 AM
Thu, Apr 25
6:00 AM
Thu, Apr 25
7:00 AM
Thu, Apr 25
8:00 AM
Thu, Apr 25
9:00 AM
Thu, Apr 25
10:00 AM
Thu, Apr 25
11:00 AM
Thu, Apr 25
12:00 PM
Thu, Apr 25
1:00 PM
Thu, Apr 25
2:00 PM
Thu, Apr 25
3:00 PM
Thu, Apr 25
4:00 PM
Thu, Apr 25
5:00 PM
Thu, Apr 25
6:00 PM
Thu, Apr 25
7:00 PM
Thu, Apr 25
8:00 PM
Thu, Apr 25
9:00 PM
Thu, Apr 25
10:00 PM
Condition
Clear

Clear

Clear

Clear

Clear

Clear

Clear

Clear

Clouds

Clouds

Clouds

Clouds

Clouds

Clouds

Clouds

Clouds

Clear

Clear

Clear

Clear

Clouds

Clouds

Clouds

Clouds

Clouds

Clouds

Clouds

Clouds

Clouds

Clouds

Clouds

Clouds

Clouds

Clouds

Clouds

Clouds

Clouds

Clouds

Clouds

Clouds

Clouds

Clouds

Clouds

Clouds

Clouds

Clouds

Clouds

Clouds
Temperature 54°F55°F56°F56°F55°F55°F55°F54°F54°F56°F61°F65°F68°F71°F73°F75°F76°F76°F76°F76°F73°F70°F69°F69°F66°F65°F64°F63°F62°F62°F61°F61°F60°F63°F66°F67°F69°F72°F76°F78°F80°F80°F78°F76°F74°F73°F73°F72°F
Feels Like 53°F53°F54°F54°F54°F54°F53°F53°F53°F55°F60°F64°F67°F70°F72°F74°F75°F75°F75°F75°F73°F70°F68°F68°F65°F64°F63°F63°F62°F62°F61°F60°F60°F63°F66°F67°F68°F71°F76°F78°F81°F80°F78°F76°F74°F73°F73°F72°F
Cloudiness 0%0%0%0%0%0%1%3%19%22%65%35%23%18%14%12%1%0%0%3%17%27%71%77%60%46%46%46%69%80%63%53%44%44%78%90%93%96%90%81%40%50%62%68%71%75%97%100%
Visibility 6 mi6 mi6 mi6 mi6 mi6 mi6 mi6 mi6 mi6 mi6 mi6 mi6 mi6 mi6 mi6 mi6 mi6 mi6 mi6 mi6 mi6 mi6 mi6 mi6 mi6 mi6 mi6 mi6 mi6 mi6 mi6 mi6 mi6 mi6 mi6 mi6 mi6 mi6 mi6 mi6 mi6 mi6 mi6 mi6 mi6 mi6 mi6 mi
Precipitation 0%0%0%0%0%0%0%0%0%0%0%0%0%0%0%0%0%0%0%0%0%0%0%0%0%0%0%0%0%0%0%0%0%0%0%0%0%0%0%0%0%0%0%0%0%0%0%0%
Humidity 76%71%67%64%63%62%65%70%74%77%69%64%57%50%44%42%41%41%42%44%55%60%59%58%64%69%73%77%81%82%83%85%86%82%75%73%70%64%57%53%50%49%52%60%64%61%59%59%
Dew Point 47°F46°F45°F44°F43°F42°F43°F44°F46°F49°F51°F52°F52°F52°F50°F50°F50°F51°F52°F52°F56°F56°F54°F53°F53°F54°F55°F55°F56°F56°F56°F56°F56°F57°F58°F58°F58°F59°F59°F60°F60°F59°F59°F60°F60°F58°F57°F57°F
Pressure 30.15"30.15"30.15"30.15"30.15"30.15"30.15"30.15"30.15"30.18"30.18"30.18"30.18"30.18"30.15"30.15"30.12"30.09"30.09"30.09"30.09"30.09"30.12"30.12"30.12"30.12"30.12"30.12"30.12"30.12"30.12"30.15"30.15"30.18"30.18"30.18"30.18"30.18"30.15"30.12"30.09"30.09"30.06"30.09"30.09"30.09"30.12"30.12"
Wind Speed 3.9 mph4.6 mph5.3 mph6.2 mph5.6 mph5.6 mph5 mph4.7 mph5.7 mph3.9 mph4.6 mph6.2 mph7.5 mph8.5 mph8.6 mph8.2 mph8 mph7.7 mph7.5 mph7.3 mph5.3 mph5.4 mph5.6 mph4.9 mph4.3 mph4 mph2.7 mph3.7 mph2.4 mph2 mph1.7 mph2.2 mph3.3 mph3.4 mph4.6 mph4.9 mph4.2 mph3.4 mph1.2 mph1.7 mph2.1 mph2.9 mph2.6 mph5.7 mph5.2 mph3.4 mph4.3 mph2.7 mph
Wind
Direction
196°
SSW
197°
SSW
217°
SW
232°
SW
242°
WSW
251°
WSW
252°
WSW
284°
WNW
307°
NW
283°
WNW
234°
SW
219°
SW
225°
SW
233°
SW
237°
WSW
241°
WSW
248°
WSW
248°
WSW
238°
WSW
238°
WSW
224°
SW
231°
SW
228°
SW
239°
WSW
271°
W
278°
W
305°
NW
340°
NNW
17°
NNE
47°
NE
35°
NE
45°
NE
37°
NE
27°
NNE
25°
NNE
30°
NNE
40°
NE
65°
ENE
95°
E
232°
SW
236°
SW
272°
W
329°
NNW
11°
N
22°
NNE
76°
ENE
123°
ESE
133°
SE

Daily Forecast

Date High Low Precip. Humidity
Today
Apr 23

Clear
73 °F
50 °F
0%
38%
Wednesday
Apr 24

Clouds
76 °F
54 °F
0%
44%
Thursday
Apr 25

Clouds
80 °F
60 °F
0%
57%
Friday
Apr 26

Rain
81 °F
64 °F
34%
54%
Saturday
Apr 27

Rain
77 °F
64 °F
100%
60%
Sunday
Apr 28

Clear
83 °F
65 °F
0%
45%
Monday
Apr 29

Clear
84 °F
64 °F
0%
48%
Tuesday
Apr 30

Rain
85 °F
66 °F
87%
48%
Wednesday
May 1

Clear
87 °F
67 °F
0%
43%
Thursday
May 2

Clear
86 °F
67 °F
0%
42%
Friday
May 3

Clear
89 °F
68 °F
0%
37%
Saturday
May 4

Clear
88 °F
69 °F
0%
36%
Sunday
May 5

Clear
87 °F
66 °F
0%
33%
Monday
May 6

Clouds
90 °F
67 °F
0%
36%
Tuesday
May 7

Clouds
91 °F
69 °F
0%
31%
Wednesday
May 8

Clear
93 °F
70 °F
0%
31%

Temperature 8-14 Day Outlook



Precipitation 8-14 Day Outlook




Quick Links
Lake Blackshear News
Lake Blackshear Photos
Lake Blackshear Videos




About Us
Contact Us
Site Map
Search Site
Advertise With Us
   
Blackshear.USLakes.info
THE LAKE BLACKSHEAR WEBSITE

Copyright 2024, Lakes Online
Privacy    |    Legal